Regional Weather Roundup
Issued by NWS

Home | Current Version | Previous Version | Graphics & Text | Print | Product List | Glossary On
Versions: 1 2 3 4 5 6 7 8 9 10 11 12 13 14 15 16 17 18 19 20 21 22 23 24 25 26 27 28 29 30 31 32 33 34 35 36 37 38 39 40 41 42 43 44 45 46 47 48 49 50
000
ASUS43 KOAX 242202
RWRNE

WEATHER ROUNDUP FOR NEBRASKA
NATIONAL WEATHER SERVICE OMAHA NE
400 PM CST MON NOV 24 2014

NOTES: SATELLITE DATA IS BEING USED TO AUGMENT CLOUD COVER ABOVE
       12000 FEET.
       "FAIR" INDICATES FEW OR NO CLOUDS BELOW 12,000 FEET WITH NO
       SIGNIFICANT WEATHER AND/OR OBSTRUCTIONS TO VISIBILITY.

  * THESE STATIONS DO NOT REPORT WEATHER SUCH AS RAIN...SNOW OR FOG.

NEZ001>004-019>022-054>056-242300-
NEBRASKA PANHANDLE

CITY           SKY/WX    TMP DP  RH WIND       PRES   REMARKS
SCOTTSBLUFF    PTSUNNY   42  20  41 NW31G52   30.01R
ALLIANCE       CLOUDY    38  23  55 NW26G35   29.97R WCI  26
CHADRON        CLOUDY    37  28  70 N12G26    29.99R WCI  29
SIDNEY         LGT SNOW  32  28  85 NW16G30   30.01R FOG     WCI  21
$$

NEZ057>060-069>072-079>082-242300-
SOUTHWEST NEBRASKA

CITY           SKY/WX    TMP DP  RH WIND       PRES   REMARKS
NORTH PLATTE   MOSUNNY   43  22  43 NW21G29   29.94R
IMPERIAL       LGT RAIN  38  30  73 NW24G38   29.99R WCI  27
MCCOOK         CLOUDY    48  21  34 NW16G24   29.94R
$$

NEZ005>010-023>029-035>040-094-242300-
NORTH CENTRAL NEBRASKA

CITY           SKY/WX    TMP DP  RH WIND       PRES   REMARKS
VALENTINE      SUNNY     34  17  50 NW16G25   29.95R WCI  24
BROKEN BOW     SUNNY     40  17  39 N20G26    29.93R WCI  30
ORD            CLEAR     37   6  27 NW21G29   29.92R WCI  26
$$

NEZ041-046>049-061>064-073>077-083>087-242300-
SOUTH CENTRAL NEBRASKA

CITY           SKY/WX    TMP DP  RH WIND       PRES   REMARKS
GRAND ISLAND   SUNNY     39   9  29 NW20G30   29.92R WCI  29
HASTINGS       SUNNY     40  15  36 NW21G28   29.92R WCI  30
KEARNEY *      SUNNY     41  16  36 W23       29.95R
$$

NEZ011>018-030>034-042>045-242300-
NORTHEAST NEBRASKA

CITY           SKY/WX    TMP DP  RH WIND       PRES   REMARKS
NORFOLK        CLEAR     33   9  36 NW24G30   29.87R WCI  20
COLUMBUS *     CLEAR     36   9  32 NW21G28   29.90R WCI  24
TEKAMAH        CLEAR     35  15  44 NW24G35   29.84R WCI  23
$$

NEZ050>053-065>068-078-088>093-242300-
SOUTHEAST NEBRASKA

CITY           SKY/WX    TMP DP  RH WIND       PRES   REMARKS
LINCOLN        CLEAR     38   9  30 NW17G32   29.90R WCI  28
OMAHA EPPLEY   PTCLDY    36  17  46 NW28G35   29.86R WCI  23
FALLS CITY     CLEAR     38  20  48 NW17      29.86R WCI  28
$$

NEZ044-045-051>053-067-242300-
OMAHA AREA

CITY           SKY/WX    TMP DP  RH WIND       PRES   REMARKS
OMAHA EPPLEY   PTCLDY    36  17  46 NW28G35   29.86R WCI  23
OFFUTT AFB     CLEAR     36  17  44 NW24G30   29.84R WCI  25
$$



USA.gov is the U.S. government's official web portal to all federal, state and local government web resources and services.